EA5DFV Alicante ES current weather conditions

sailwx.info

Wind from 053 at 0 knots gusting 3

Air temperature 13.9° C
Dewpoint 10.1° C

Last reported at 2020-Feb-21 17:03 UTC.
Time now 2020-Feb-21 17:36 UTC

Location: N 38°47' E 000°02'.
View on Google Maps.

See reports from other nearby stations

  
Tides and Currents Weather Stations Pressure Air Temp Water Temp Dewpoint Dewpoint Depression Visibility Wind Speed Wind Dir Waves Ship Positions
date/time (UTC)wind fromknots sea level pressurealtimeterstation pressurevisibilityair tempwater tempwave heightnotes
2020-Feb-21 17:03 053 0 gusting 3 13.9
2020-Feb-21 16:53 053 13.9
2020-Feb-21 16:48 053 0 gusting 2 14.4
2020-Feb-21 16:43 053 0 gusting 1 14.4
2020-Feb-21 16:38 053 14.4
2020-Feb-21 16:33 053 15.0
2020-Feb-21 16:28 044 15.0
2020-Feb-21 16:23 044 15.0
2020-Feb-21 16:18 044 15.6
2020-Feb-21 16:13 042 15.6
2020-Feb-21 16:08 042 0 gusting 3 16.1
2020-Feb-21 16:03 351 16.1
2020-Feb-21 15:58 351 16.1
2020-Feb-21 15:53 351 0 gusting 1 16.1
2020-Feb-21 15:48 350 16.7
2020-Feb-21 15:43 351 16.7
2020-Feb-21 15:38 351 16.7
2020-Feb-21 15:33 350 16.7
2020-Feb-21 15:28 350 16.7
2020-Feb-21 15:23 350 16.7
2020-Feb-21 15:18 350 16.7
2020-Feb-21 15:13 350 16.7
2020-Feb-21 15:08 350 16.7
2020-Feb-21 15:03 350 16.1
2020-Feb-21 14:58 351 16.1
2020-Feb-21 14:53 351 16.1
2020-Feb-21 14:48 351 16.1
2020-Feb-21 14:43 351 0 gusting 5 16.1
2020-Feb-21 14:38 348 16.1
2020-Feb-21 14:33 348 16.1
2020-Feb-21 14:28 347 1 gusting 6 16.1
2020-Feb-21 14:23 028 16.1
2020-Feb-21 14:18 343 1 gusting 5 16.1
2020-Feb-21 14:13 011 0 gusting 6 16.1
2020-Feb-21 14:08 005 1 gusting 6 16.1
2020-Feb-21 14:03 032 1 gusting 4 16.1
2020-Feb-21 13:58 346 0 gusting 4 16.1
2020-Feb-21 13:53 017 16.1
2020-Feb-21 13:48 355 1 gusting 6 16.1
2020-Feb-21 13:43 350 2 gusting 6 16.1
2020-Feb-21 13:38 348 0 gusting 4 16.1
2020-Feb-21 13:33 010 1 gusting 9 15.6
2020-Feb-21 13:28 346 1 gusting 6 15.6
2020-Feb-21 13:23 021 0 gusting 5 15.6
2020-Feb-21 13:18 005 1 gusting 5 15.6
2020-Feb-21 13:13 355 1 gusting 4 15.6
2020-Feb-21 13:08 335 0 gusting 3 15.6
2020-Feb-21 13:03 009 0 gusting 3 15.6
2020-Feb-21 12:58 360 0 gusting 6 15.6
2020-Feb-21 12:53 015 1 gusting 6 15.6
2020-Feb-21 12:48 026 1 gusting 5 15.6
2020-Feb-21 12:43 346 0 gusting 5 15.6
2020-Feb-21 12:38 342 1 gusting 6 15.6
2020-Feb-21 12:33 355 15.6
2020-Feb-21 12:28 360 1 gusting 4 15.6
2020-Feb-21 12:23 321 1 gusting 6 15.6
2020-Feb-21 12:18 311 1 gusting 6 15.0
2020-Feb-21 12:13 336 0 gusting 3 15.0
2020-Feb-21 12:08 300 15.0
2020-Feb-21 12:03 298 0 gusting 3 15.0
2020-Feb-21 11:58 273 0 gusting 3 15.0
2020-Feb-21 11:53 258 15.0
2020-Feb-21 11:48 258 15.0
2020-Feb-21 11:43 258 0 gusting 4 15.0
2020-Feb-21 11:38 329 0 gusting 4 15.0
2020-Feb-21 11:33 355 15.0
2020-Feb-21 11:28 355 15.0
2020-Feb-21 11:23 320 0 gusting 6 14.4
2020-Feb-21 11:18 321 0 gusting 5 14.4
2020-Feb-21 11:13 324 1 gusting 5 14.4
2020-Feb-21 11:08 342 14.4
2020-Feb-21 11:03 342 1 gusting 4 14.4
2020-Feb-21 10:58 342 1 gusting 4 14.4
2020-Feb-21 10:53 307 14.4
2020-Feb-21 10:48 309 14.4
2020-Feb-21 10:43 309 14.4
2020-Feb-21 10:38 309 14.4
2020-Feb-21 10:33 309 0 gusting 4 14.4
2020-Feb-21 10:28 306 2 gusting 4 14.4
2020-Feb-21 10:23 253 0 gusting 5 14.4
2020-Feb-21 10:18 253 0 gusting 5 14.4
2020-Feb-21 10:13 336 0 gusting 3 15.0
2020-Feb-21 10:08 336 0 gusting 5 15.0
2020-Feb-21 10:03 296 0 gusting 2 15.0
2020-Feb-21 09:58 294 1 gusting 2 15.0
2020-Feb-21 09:53 355 0 gusting 4 15.0
2020-Feb-21 09:48 355 0 gusting 6 14.4
2020-Feb-21 09:43 336 0 gusting 6 14.4
2020-Feb-21 09:38 335 1 gusting 4 14.4
2020-Feb-21 09:33 340 0 gusting 3 13.9
2020-Feb-21 09:28 342 0 gusting 3 13.9
2020-Feb-21 09:23 342 0 gusting 4 13.9
2020-Feb-21 09:18 234 0 gusting 1 13.3
2020-Feb-21 09:13 234 13.3
2020-Feb-21 09:08 234 12.8
2020-Feb-21 09:03 234 0 gusting 3 12.8
2020-Feb-21 08:58 234 0 gusting 3 12.8
2020-Feb-21 08:53 234 12.8
2020-Feb-21 08:48 234 12.8
2020-Feb-21 08:43 234 0 gusting 3 12.2
2020-Feb-21 08:38 234 12.2
2020-Feb-21 08:33 234 0 gusting 3 12.2
2020-Feb-21 08:28 234 11.7
2020-Feb-21 08:23 234 11.7
2020-Feb-21 08:18 234 11.7
2020-Feb-21 08:13 234 11.7
2020-Feb-21 08:08 234 11.7
2020-Feb-21 08:03 234 0 gusting 3 11.7
2020-Feb-21 07:58 234 1 gusting 3 11.7
2020-Feb-21 07:53 234 1 gusting 4 11.7
2020-Feb-21 07:48 234 1 gusting 3 11.7
2020-Feb-21 07:43 234 0 gusting 3 11.7
2020-Feb-21 07:38 234 0 gusting 6 11.7
2020-Feb-21 07:33 234 3 gusting 6 11.1
2020-Feb-21 07:28 238 2 gusting 4 11.1
2020-Feb-21 07:23 238 2 gusting 4 11.1
2020-Feb-21 07:18 238 1 gusting 5 11.1
2020-Feb-21 07:13 238 1 gusting 6 11.1
2020-Feb-21 07:08 238 2 gusting 6 11.1
2020-Feb-21 07:03 237 1 gusting 5 11.1
2020-Feb-21 06:58 237 1 gusting 6 11.1
2020-Feb-21 06:53 237 3 gusting 6 11.1
2020-Feb-21 06:48 238 2 gusting 6 11.1
2020-Feb-21 06:43 233 2 gusting 6 11.1
2020-Feb-21 06:38 233 3 gusting 7 11.1
2020-Feb-21 06:33 234 3 gusting 7 11.1
2020-Feb-21 06:28 227 2 gusting 5 11.1
2020-Feb-21 06:23 233 0 gusting 6 11.1
2020-Feb-21 06:18 233 2 gusting 6 11.1
2020-Feb-21 06:13 233 2 gusting 6 11.1
2020-Feb-21 06:08 240 1 gusting 6 11.1
2020-Feb-21 06:03 240 1 gusting 6 10.6
2020-Feb-21 05:58 240 1 gusting 5 10.6
2020-Feb-21 05:53 240 1 gusting 6 10.6
2020-Feb-21 05:48 240 2 gusting 6 10.6
2020-Feb-21 05:43 242 1 gusting 5 10.6
2020-Feb-21 05:38 244 1 gusting 5 10.6
2020-Feb-21 05:33 244 1 gusting 5 10.0
2020-Feb-21 05:28 248 1 gusting 6 10.0
2020-Feb-21 05:23 263 2 gusting 5 9.4
2020-Feb-21 05:18 311 1 gusting 3 9.4
2020-Feb-21 05:13 312 9.4
2020-Feb-21 05:08 312 10.0
2020-Feb-21 05:03 312 10.0
2020-Feb-21 04:58 312 10.6
2020-Feb-21 04:53 312 10.6
2020-Feb-21 04:48 312 10.6
2020-Feb-21 04:43 312 10.6
2020-Feb-21 04:38 312 0 gusting 2 10.6
2020-Feb-21 04:33 312 10.6
2020-Feb-21 04:28 312 0 gusting 3 10.6
2020-Feb-21 04:23 344 10.6
2020-Feb-21 04:18 355 0 gusting 2 10.0
2020-Feb-21 04:13 355 0 gusting 2 10.0
2020-Feb-21 04:08 355 10.0
2020-Feb-21 04:03 355 10.0
2020-Feb-21 03:58 355 10.0
2020-Feb-21 03:53 355 10.0
2020-Feb-21 03:48 355 10.0
2020-Feb-21 03:43 355 9.4
2020-Feb-21 03:38 355 9.4
2020-Feb-21 03:33 355 10.0
2020-Feb-21 03:28 355 9.4
2020-Feb-21 03:23 355 9.4
2020-Feb-21 03:18 355 8.9
2020-Feb-21 03:13 355 8.9
2020-Feb-21 03:08 355 8.3
2020-Feb-21 03:03 355 8.3
2020-Feb-21 02:58 355 0 gusting 1 8.3
2020-Feb-21 02:53 355 0 gusting 2 8.3
2020-Feb-21 02:48 355 8.3
2020-Feb-21 02:43 355 8.3
2020-Feb-21 02:38 355 8.3
2020-Feb-21 02:33 355 8.3
2020-Feb-21 02:28 355 8.3
2020-Feb-21 02:23 355 8.3
2020-Feb-21 02:18 355 8.3
2020-Feb-21 02:13 355 8.9
2020-Feb-21 02:08 355 8.9
2020-Feb-21 02:03 355 8.9
2020-Feb-21 01:58 355 8.9
2020-Feb-21 01:53 355 8.3
2020-Feb-21 01:48 355 8.3
2020-Feb-21 01:43 355 8.3
2020-Feb-21 01:38 355 0 gusting 2 7.8
2020-Feb-21 01:33 355 7.8
2020-Feb-21 01:28 355 7.8
2020-Feb-21 01:23 355 7.8
2020-Feb-21 01:18 355 7.8
2020-Feb-21 01:13 355 7.8
2020-Feb-21 01:08 355 8.3
2020-Feb-21 01:03 355 8.3
2020-Feb-21 00:58 355 8.3
2020-Feb-21 00:53 355 8.3
2020-Feb-21 00:48 355 8.3
2020-Feb-21 00:43 355 8.3
2020-Feb-21 00:38 355 8.3
2020-Feb-21 00:33 355 8.3
2020-Feb-21 00:28 355 8.3
2020-Feb-21 00:23 355 8.3
2020-Feb-21 00:18 355 8.3
2020-Feb-21 00:13 355 8.9
2020-Feb-21 00:08 355 8.9
2020-Feb-21 00:03 355 8.9
2020-Feb-20 23:58 355 8.9
2020-Feb-20 23:53 355 8.9
2020-Feb-20 23:48 355 8.9
2020-Feb-20 23:43 355 8.9
2020-Feb-20 23:38 355 8.9
2020-Feb-20 23:33 355 8.9
2020-Feb-20 23:28 355 8.9
2020-Feb-20 23:23 355 8.9
2020-Feb-20 23:18 355 8.9
2020-Feb-20 23:13 355 8.9
2020-Feb-20 23:08 355 8.9
2020-Feb-20 23:03 355 8.9
2020-Feb-20 22:58 355 9.4
2020-Feb-20 22:53 355 8.9
2020-Feb-20 22:48 355 9.4
2020-Feb-20 22:43 355 9.4
2020-Feb-20 22:38 355 9.4
2020-Feb-20 22:33 355 9.4
2020-Feb-20 22:28 355 9.4
2020-Feb-20 22:23 355 9.4
2020-Feb-20 22:18 355 9.4
2020-Feb-20 22:13 355 9.4
2020-Feb-20 22:08 355 9.4
2020-Feb-20 22:03 355 9.4
2020-Feb-20 21:58 355 9.4
2020-Feb-20 21:53 355 0 gusting 1 9.4
2020-Feb-20 21:48 355 9.4
2020-Feb-20 21:43 355 10.0
2020-Feb-20 21:38 355 10.0
2020-Feb-20 21:33 355 10.0
2020-Feb-20 21:28 355 10.0
2020-Feb-20 21:23 355 10.6
2020-Feb-20 21:18 355 10.6
2020-Feb-20 21:13 355 10.6
2020-Feb-20 21:08 355 10.6
2020-Feb-20 21:03 355 11.1
2020-Feb-20 20:58 355 11.1
2020-Feb-20 20:53 009 11.1
2020-Feb-20 20:48 009 11.7
2020-Feb-20 20:43 009 11.7
2020-Feb-20 20:38 009 11.7
2020-Feb-20 20:33 125 0 gusting 6 11.7
2020-Feb-20 20:28 220 0 gusting 6 11.7
2020-Feb-20 20:23 187 1 gusting 6 11.7
2020-Feb-20 20:18 202 1 gusting 6 11.7
2020-Feb-20 20:13 202 1 gusting 6 11.7
2020-Feb-20 20:08 196 2 gusting 6 11.7
2020-Feb-20 20:03 192 1 gusting 7 11.7
2020-Feb-20 19:58 153 1 gusting 7 11.7
2020-Feb-20 19:53 186 2 gusting 6 11.7
2020-Feb-20 19:48 196 2 gusting 6 11.7
2020-Feb-20 19:43 207 2 gusting 6 11.7
2020-Feb-20 19:38 182 3 gusting 6 11.7
2020-Feb-20 19:33 199 2 gusting 6 11.7
2020-Feb-20 19:28 189 1 gusting 5 11.7
2020-Feb-20 19:23 206 0 gusting 6 11.7
2020-Feb-20 19:18 138 1 gusting 6 11.7
2020-Feb-20 19:13 185 0 gusting 4 11.7
2020-Feb-20 19:08 128 1 gusting 4 11.7
2020-Feb-20 19:03 170 1 gusting 4 11.7
2020-Feb-20 18:58 128 1 gusting 6 11.7
2020-Feb-20 18:53 111 1 gusting 6 11.7
2020-Feb-20 18:48 194 2 gusting 6 11.7
2020-Feb-20 18:43 182 0 gusting 6 12.2
2020-Feb-20 18:38 188 1 gusting 6 12.2
2020-Feb-20 18:33 196 0 gusting 6 12.2
2020-Feb-20 18:28 198 1 gusting 6 12.2
2020-Feb-20 18:23 169 0 gusting 6 12.2
2020-Feb-20 18:18 139 1 gusting 5 12.2
2020-Feb-20 18:13 165 0 gusting 6 12.2
2020-Feb-20 18:08 188 0 gusting 6 12.2
2020-Feb-20 18:03 182 0 gusting 4 12.2
2020-Feb-20 17:58 106 12.2
2020-Feb-20 17:53 115 0 gusting 4 12.8
2020-Feb-20 17:48 101 0 gusting 7 12.8
2020-Feb-20 17:43 111 1 gusting 7 12.8
2020-Feb-20 17:38 119 2 gusting 8 12.8
2020-Feb-20 17:33 072 2 gusting 6 12.8
2020-Feb-20 17:28 114 1 gusting 4 12.8
2020-Feb-20 17:23 093 0 gusting 4 13.3
2020-Feb-20 17:18 088 2 gusting 7 13.3
2020-Feb-20 17:13 102 2 gusting 7 13.3
2020-Feb-20 17:08 112 2 gusting 6 13.3
2020-Feb-20 17:03 005 0 gusting 3 13.3
2020-Feb-20 16:58 119 1 gusting 3 13.3
2020-Feb-20 16:53 115 13.9
2020-Feb-20 16:48 114 2 gusting 6 13.9
2020-Feb-20 16:43 111 13.9
2020-Feb-20 16:38 076 0 gusting 4 13.9
2020-Feb-20 16:33 080 1 gusting 6 13.9
2020-Feb-20 16:28 099 14.4
2020-Feb-20 16:23 069 2 gusting 6 14.4
2020-Feb-20 16:18 080 0 gusting 6 14.4
2020-Feb-20 16:13 072 3 gusting 6 14.4
2020-Feb-20 16:08 068 2 gusting 6 15.0
2020-Feb-20 16:03 091 0 gusting 6 15.0
2020-Feb-20 15:58 109 1 gusting 6 15.0
2020-Feb-20 15:53 084 1 gusting 6 15.0
2020-Feb-20 15:48 058 1 gusting 8 15.0
2020-Feb-20 15:43 051 2 gusting 8 15.6
2020-Feb-20 15:38 065 3 gusting 7 16.1
2020-Feb-20 15:33 106 0 gusting 5 16.1
2020-Feb-20 15:28 102 1 gusting 6 15.6
2020-Feb-20 15:23 113 1 gusting 6 16.1
2020-Feb-20 15:18 056 1 gusting 6 16.1
2020-Feb-20 15:13 072 2 gusting 6 16.1
2020-Feb-20 15:08 069 0 gusting 6 16.1
2020-Feb-20 15:03 097 1 gusting 6 16.1
2020-Feb-20 14:58 099 1 gusting 6 15.6
2020-Feb-20 14:53 131 0 gusting 9 15.6
2020-Feb-20 14:48 109 4 gusting 9 16.1
2020-Feb-20 14:43 111 3 gusting 9 16.1
2020-Feb-20 14:38 074 3 gusting 9 16.1
2020-Feb-20 14:33 095 2 gusting 6 16.7
2020-Feb-20 14:28 063 0 gusting 4 16.7
2020-Feb-20 14:23 138 1 gusting 4 16.7
2020-Feb-20 14:18 101 0 gusting 4 16.7
2020-Feb-20 14:13 146 0 gusting 6 16.7
2020-Feb-20 14:08 090 2 gusting 7 16.1
2020-Feb-20 14:03 082 1 gusting 10 16.1
2020-Feb-20 13:58 099 3 gusting 10 16.7
2020-Feb-20 13:53 184 1 gusting 6 16.7
2020-Feb-20 13:48 069 2 gusting 7 16.7
2020-Feb-20 13:43 065 2 gusting 7 16.1
2020-Feb-20 13:38 097 1 gusting 6 16.1
2020-Feb-20 13:33 089 2 gusting 6 16.1
2020-Feb-20 13:28 090 1 gusting 6 16.1
2020-Feb-20 13:23 057 0 gusting 5 16.1
2020-Feb-20 13:18 063 2 gusting 6 16.1
2020-Feb-20 13:13 081 0 gusting 7 16.1
2020-Feb-20 13:08 158 1 gusting 6 16.1
2020-Feb-20 13:03 068 0 gusting 6 16.1
2020-Feb-20 12:58 071 4 gusting 6 16.1
2020-Feb-20 12:53 067 0 gusting 5 16.1
2020-Feb-20 12:48 057 3 gusting 5 16.1
2020-Feb-20 12:43 063 2 gusting 6 16.1
2020-Feb-20 12:38 109 0 gusting 6 16.1
2020-Feb-20 12:33 071 1 gusting 6 16.1
2020-Feb-20 12:28 073 2 gusting 6 16.1
2020-Feb-20 12:23 078 2 gusting 4 16.1
2020-Feb-20 12:18 068 1 gusting 6 15.6
2020-Feb-20 12:13 065 1 gusting 6 16.1
2020-Feb-20 12:08 199 1 gusting 6 16.1
2020-Feb-20 12:03 117 0 gusting 6 16.1
2020-Feb-20 11:58 107 2 gusting 6 16.1
2020-Feb-20 11:53 109 1 gusting 6 16.1
2020-Feb-20 11:48 063 1 gusting 6 16.1
2020-Feb-20 11:43 074 0 gusting 6 16.1
2020-Feb-20 11:38 072 1 gusting 6 15.6
2020-Feb-20 11:33 085 2 gusting 9 15.6
2020-Feb-20 11:28 074 5 gusting 9 15.6
2020-Feb-20 11:23 060 1 gusting 6 15.6
2020-Feb-20 11:18 115 4 gusting 6 15.6
2020-Feb-20 11:13 085 4 gusting 9 15.6
2020-Feb-20 11:08 059 3 gusting 9 15.6
2020-Feb-20 11:03 059 3 gusting 5 15.6
2020-Feb-20 10:58 045 2 gusting 6 15.6
2020-Feb-20 10:53 108 3 gusting 6 15.0
2020-Feb-20 10:48 067 1 gusting 6 15.0
2020-Feb-20 10:43 061 1 gusting 6 15.0
2020-Feb-20 10:38 060 1 gusting 6 15.0
2020-Feb-20 10:33 119 2 gusting 6 15.0
2020-Feb-20 10:28 090 15.0
2020-Feb-20 10:23 076 0 gusting 4 15.0
2020-Feb-20 10:18 126 0 gusting 4 15.0
2020-Feb-20 10:13 172 15.0
2020-Feb-20 10:08 173 0 gusting 3 15.0
2020-Feb-20 10:03 173 15.0
2020-Feb-20 09:58 173 0 gusting 2 15.0
2020-Feb-20 09:53 173 0 gusting 2 15.0
2020-Feb-20 09:48 173 14.4
2020-Feb-20 09:43 179 1 gusting 4 14.4
2020-Feb-20 09:38 107 0 gusting 2 13.9
2020-Feb-20 09:33 113 13.9
2020-Feb-20 09:28 113 1 gusting 4 13.9
2020-Feb-20 09:23 118 13.3
2020-Feb-20 09:18 118 1 gusting 4 12.8
2020-Feb-20 09:13 109 1 gusting 4 12.2
2020-Feb-20 09:08 202 12.2
2020-Feb-20 09:03 202 11.7
2020-Feb-20 08:58 202 0 gusting 2 11.7
2020-Feb-20 08:53 202 11.1
2020-Feb-20 08:48 202 10.6
2020-Feb-20 08:43 202 10.0
2020-Feb-20 08:38 202 9.4
2020-Feb-20 08:33 202 9.4
2020-Feb-20 08:28 202 8.9
2020-Feb-20 08:23 202 8.9
2020-Feb-20 08:18 202 8.9
2020-Feb-20 08:13 202 8.9
2020-Feb-20 08:08 202 8.9
2020-Feb-20 08:03 202 8.3
2020-Feb-20 07:58 202 8.3
2020-Feb-20 07:53 202 8.3
2020-Feb-20 07:48 202 7.8
2020-Feb-20 07:43 202 7.8
2020-Feb-20 07:38 202 7.8
2020-Feb-20 07:33 202 7.8
2020-Feb-20 07:28 202 7.2
2020-Feb-20 07:23 202 7.2
2020-Feb-20 07:18 202 7.2
2020-Feb-20 07:13 202 7.2
2020-Feb-20 07:08 202 7.2
2020-Feb-20 07:03 202 7.8
2020-Feb-20 06:58 202 7.8
2020-Feb-20 06:53 202 7.8
2020-Feb-20 06:48 202 7.8
2020-Feb-20 06:43 202 7.8
2020-Feb-20 06:38 202 7.2
2020-Feb-20 06:33 202 7.2
2020-Feb-20 06:28 202 7.8
2020-Feb-20 06:23 202 7.8
2020-Feb-20 06:18 202 7.8
2020-Feb-20 06:13 202 7.8
2020-Feb-20 06:08 202 7.8
2020-Feb-20 06:03 202 7.8
2020-Feb-20 05:58 202 7.8
2020-Feb-20 05:53 202 7.8
2020-Feb-20 05:48 202 7.8
2020-Feb-20 05:43 202 7.8
2020-Feb-20 05:38 202 7.8
2020-Feb-20 05:33 202 7.8
2020-Feb-20 05:28 202 7.8
2020-Feb-20 05:23 202 8.3
2020-Feb-20 05:18 202 7.8
2020-Feb-20 05:13 202 7.8
2020-Feb-20 05:08 202 7.8
2020-Feb-20 05:03 202 7.8
2020-Feb-20 04:58 202 7.2
2020-Feb-20 04:53 202 7.2
2020-Feb-20 04:48 202 7.2
2020-Feb-20 04:43 202 7.8
2020-Feb-20 04:38 202 7.8
2020-Feb-20 04:33 202 7.8
2020-Feb-20 04:28 202 7.8
2020-Feb-20 04:23 202 7.8
2020-Feb-20 04:18 202 7.8
2020-Feb-20 04:13 202 7.8
2020-Feb-20 04:08 202 7.8
2020-Feb-20 04:03 202 7.8
2020-Feb-20 03:58 202 7.8
2020-Feb-20 03:53 202 7.8
2020-Feb-20 03:48 202 7.2
2020-Feb-20 03:43 202 7.8
2020-Feb-20 03:38 202 7.8
2020-Feb-20 03:33 202 7.8
2020-Feb-20 03:28 202 7.8
2020-Feb-20 03:23 202 7.8
2020-Feb-20 03:18 202 7.8
2020-Feb-20 03:13 202 7.8
2020-Feb-20 03:08 202 7.8
2020-Feb-20 03:03 202 7.8
2020-Feb-20 02:58 202 7.8
2020-Feb-20 02:53 202 7.8
2020-Feb-20 02:48 202 7.8
2020-Feb-20 02:43 202 7.8
2020-Feb-20 02:38 202 7.8
2020-Feb-20 02:33 202 7.8
2020-Feb-20 02:28 202 7.8
2020-Feb-20 02:23 202 7.8
2020-Feb-20 02:18 202 7.8
2020-Feb-20 02:13 202 7.8
2020-Feb-20 02:08 202 7.8
2020-Feb-20 02:03 202 7.8
2020-Feb-20 01:58 202 7.8
2020-Feb-20 01:53 202 7.8
2020-Feb-20 01:48 202 7.8
2020-Feb-20 01:43 202 8.3
2020-Feb-20 01:38 202 8.3
2020-Feb-20 01:33 202 8.3
2020-Feb-20 01:28 202 8.3
2020-Feb-20 01:23 202 8.3
2020-Feb-20 01:18 202 8.3
2020-Feb-20 01:13 202 8.3
2020-Feb-20 01:08 202 8.9
2020-Feb-20 01:03 202 8.9
2020-Feb-20 00:58 202 8.9
2020-Feb-20 00:53 202 8.9
2020-Feb-20 00:48 202 8.9
2020-Feb-20 00:43 202 8.9
2020-Feb-20 00:38 202 8.9
2020-Feb-20 00:33 202 8.9
2020-Feb-20 00:28 202 8.9
2020-Feb-20 00:23 202 8.9
2020-Feb-20 00:18 202 8.9
2020-Feb-20 00:13 202 8.9
2020-Feb-20 00:08 202 9.4
2020-Feb-20 00:03 202 9.4
2020-Feb-19 23:58 202 9.4
2020-Feb-19 23:53 202 9.4
2020-Feb-19 23:48 202 9.4
2020-Feb-19 23:43 202 9.4
2020-Feb-19 23:38 202 10.0
2020-Feb-19 23:33 202 10.0
2020-Feb-19 23:28 202 10.0
2020-Feb-19 23:23 202 0 gusting 1 10.0
2020-Feb-19 23:18 202 10.0
2020-Feb-19 23:13 202 10.0
2020-Feb-19 23:08 202 10.0
2020-Feb-19 23:03 202 10.0
2020-Feb-19 22:58 202 10.0
2020-Feb-19 22:53 202 10.0
2020-Feb-19 22:48 202 10.0
2020-Feb-19 22:43 202 10.0
2020-Feb-19 22:38 202 10.0
2020-Feb-19 22:33 202 10.0
2020-Feb-19 22:28 202 10.6
2020-Feb-19 22:23 202 10.6
2020-Feb-19 22:18 202 10.6
2020-Feb-19 22:13 202 10.6
2020-Feb-19 22:08 202 10.6
2020-Feb-19 22:03 202 10.6
2020-Feb-19 21:58 202 11.1
2020-Feb-19 21:53 202 0 gusting 2 11.1
2020-Feb-19 21:48 202 0 gusting 2 11.1
2020-Feb-19 21:43 202 0 gusting 3 11.1
2020-Feb-19 21:38 202 0 gusting 3 11.1
2020-Feb-19 21:33 204 11.1
2020-Feb-19 21:28 204 11.7
2020-Feb-19 21:23 204 0 gusting 5 11.7
2020-Feb-19 21:18 204 0 gusting 6 11.7
2020-Feb-19 21:13 192 1 gusting 6 11.7
2020-Feb-19 21:08 198 0 gusting 6 11.7
2020-Feb-19 21:03 192 1 gusting 5 11.7
2020-Feb-19 20:58 189 0 gusting 4 11.7
2020-Feb-19 20:53 180 11.7
2020-Feb-19 20:48 094 11.7
2020-Feb-19 20:43 133 11.7
2020-Feb-19 20:38 174 0 gusting 5 11.7
2020-Feb-19 20:33 111 0 gusting 2 11.7
2020-Feb-19 20:28 111 0 gusting 4 11.7
2020-Feb-19 20:23 102 0 gusting 4 11.7
2020-Feb-19 20:18 102 0 gusting 4 11.7
2020-Feb-19 20:13 102 0 gusting 4 12.2
2020-Feb-19 20:08 104 0 gusting 5 12.2
2020-Feb-19 20:03 104 1 gusting 5 12.2
2020-Feb-19 19:58 104 0 gusting 7 12.2
2020-Feb-19 19:53 103 2 gusting 7 12.2
2020-Feb-19 19:48 107 2 gusting 4 12.2
2020-Feb-19 19:43 119 1 gusting 4 12.2
2020-Feb-19 19:38 136 1 gusting 4 12.2
2020-Feb-19 19:33 112 0 gusting 4 12.2
2020-Feb-19 19:28 112 1 gusting 6 12.2
2020-Feb-19 19:23 128 1 gusting 6 12.2
2020-Feb-19 19:18 117 0 gusting 6 12.2
2020-Feb-19 19:13 122 1 gusting 7 12.2
2020-Feb-19 19:08 117 3 gusting 7 12.2
2020-Feb-19 19:03 102 3 gusting 6 12.2
2020-Feb-19 18:58 120 3 gusting 6 12.2
2020-Feb-19 18:53 113 2 gusting 8 12.2
2020-Feb-19 18:48 112 1 gusting 8 12.2
2020-Feb-19 18:43 103 3 gusting 6 12.2
2020-Feb-19 18:38 140 2 gusting 8 12.2
2020-Feb-19 18:33 107 3 gusting 8 12.2
2020-Feb-19 18:28 105 2 gusting 7 12.2
2020-Feb-19 18:23 105 3 gusting 7 12.2
2020-Feb-19 18:18 082 2 gusting 6 12.8
2020-Feb-19 18:13 106 1 gusting 6 12.8
2020-Feb-19 18:08 108 0 gusting 6 12.8
2020-Feb-19 18:03 107 1 gusting 7 12.8
2020-Feb-19 17:58 111 3 gusting 6 12.8
2020-Feb-19 17:53 101 1 gusting 4 12.8
2020-Feb-19 17:48 101 12.8
2020-Feb-19 17:43 101 1 gusting 7 12.8
2020-Feb-19 17:38 086 1 gusting 4 12.8
2020-Feb-19 17:33 086 0 gusting 4 12.8
2020-Feb-19 17:28 086 0 gusting 4 12.8
2020-Feb-19 17:23 095 0 gusting 4 12.8
2020-Feb-19 17:18 095 12.8
2020-Feb-19 17:13 095 2 gusting 5 13.3
2020-Feb-19 17:08 094 0 gusting 5 13.3
2020-Feb-19 17:03 061 13.3